Weather reports worldwide

Advertisment
Leek Thorncliffe, United Kingdom (3330): temperature & dewpoint: 13.02.2018 05:00:00 - 19.02.2018 05:00:00 (GMT)Leek Thorncliffe, United Kingdom (3330): temperature -20cm & temperature -100cm: 13.02.2018 05:00:00 - 19.02.2018 05:00:00 (GMT)Leek Thorncliffe, United Kingdom (3330): wind speed & gusts: 13.02.2018 05:00:00 - 19.02.2018 05:00:00 (GMT)Leek Thorncliffe, United Kingdom (3330): wind direction: 13.02.2018 05:00:00 - 19.02.2018 05:00:00 (GMT)Leek Thorncliffe, United Kingdom (3330): reduced air pressure: 13.02.2018 05:00:00 - 19.02.2018 05:00:00 (GMT)Leek Thorncliffe, United Kingdom (3330): visibility: 13.02.2018 05:00:00 - 19.02.2018 05:00:00 (GMT)Leek Thorncliffe, United Kingdom (3330): precipitation: 13.02.2018 05:00:00 - 19.02.2018 05:00:00 (GMT)
Date & Time tt [°C] td [°C] tt -20cm [°C] tt -100cm [°C] ff [km/h] ff [kn] fx [km/h] fx [kn] dd ppp [hPa] vv [km] rr [mm]
19.02.2018 05:00:00 5,7 5,7 - - 0 0 - - N 1016,4 0,3 0,4
19.02.2018 04:00:00 5,6 5,6 - - 5 3 - - WSW 1016,5 0,2 0,6
19.02.2018 03:00:00 5,5 5,5 - - 5 3 - - S 1016,7 0,4 0,4
19.02.2018 02:00:00 5,5 5,5 - - 8 4 - - S 1017,2 0,2 0,4
19.02.2018 01:00:00 5,4 5,4 - - 8 4 - - SSW 1017,6 0,4 0,6
19.02.2018 00:00:00 5,4 5,4 - - 9 5 - - SSW 1018,0 0,1 0,2
18.02.2018 23:00:00 5,4 5,4 - - 13 7 - - SSW 1018,2 0,2 0,2
18.02.2018 22:00:00 5,5 5,5 - - 13 7 - - SSW 1018,5 0,7 0,4
18.02.2018 21:00:00 5,4 5,4 - - 13 7 - - S 1018,9 1,7 0,2
18.02.2018 20:00:00 5,4 5,3 - - 15 8 - - S 1019,0 2,1 0,0
18.02.2018 19:00:00 5,3 5,2 - - 13 7 - - S 1019,4 1,9 0,0
18.02.2018 18:00:00 5,3 5,1 - - 13 7 - - S 1019,5 3,5 0,0
18.02.2018 17:00:00 5,2 5,1 - - 13 7 - - S 1019,6 3,1 0,0
18.02.2018 16:00:00 5,3 5,1 - - 15 8 - - S 1019,6 2,9 0,0
18.02.2018 15:00:00 5,4 5,0 - - 13 7 - - S 1020,0 6 0,0
18.02.2018 14:00:00 5,7 4,9 - - 16 9 - - S 1019,8 7 0,0
18.02.2018 13:00:00 5,4 4,7 - - 16 9 - - S 1020,2 8 0,0
18.02.2018 12:00:00 5,0 4,5 - - 16 9 - - S 1020,5 5 0,0
18.02.2018 11:00:00 4,5 4,3 - - 18 10 - - S 1020,6 5 0,0
18.02.2018 10:00:00 3,7 3,5 - - 16 9 - - S 1020,7 2,4 0,0
18.02.2018 09:00:00 3,4 3,3 3,2 4,7 15 8 - - SSE 1020,9 1,5 0,0
18.02.2018 08:00:00 2,8 2,4 - - 13 7 - - SSE 1021,1 1,9 0,0
18.02.2018 07:00:00 3,4 2,6 - - 13 7 - - SSE 1020,8 9 0,0
18.02.2018 06:00:00 3,9 3,0 - - 11 6 - - SSE 1021,0 10 0,0
18.02.2018 05:00:00 4,4 3,2 - - 11 6 - - SSE 1020,5 28 0,0
18.02.2018 04:00:00 3,8 3,1 - - 11 6 - - S 1020,5 16 0,0
18.02.2018 03:00:00 3,5 2,7 - - 9 5 - - S 1021,4 12 0,0
18.02.2018 02:00:00 3,2 2,2 - - 9 5 - - S 1021,8 10 0,0
18.02.2018 01:00:00 3,9 2,6 - - 13 7 - - S 1021,5 19 0,0
18.02.2018 00:00:00 3,5 2,2 - - 11 6 - - S 1021,6 19 0,0
17.02.2018 23:00:00 3,8 2,5 - - 11 6 - - S 1021,6 20 0,0
17.02.2018 22:00:00 4,4 2,3 - - 8 4 - - SSE 1021,4 30 0,0
17.02.2018 21:00:00 4,2 1,9 - - 11 6 - - S 1021,4 30 0,0
17.02.2018 20:00:00 4,4 2,2 - - 11 6 - - S 1021,4 29 0,0
17.02.2018 19:00:00 4,6 2,2 - - 13 7 - - S 1021,0 45 0,0
17.02.2018 18:00:00 4,7 2,1 - - 13 7 - - S 1020,7 40 0,2
17.02.2018 17:00:00 5,6 1,9 - - 11 6 - - SSW 1020,2 40 0,0
17.02.2018 16:00:00 5,9 2,0 - - 13 7 - - SW 1020,0 45 0,0
17.02.2018 15:00:00 7,4 1,8 - - 15 8 - - WSW 1019,7 20 0,0
17.02.2018 14:00:00 6,1 3,0 - - 18 10 - - WSW 1020,1 29 0,0
17.02.2018 13:00:00 6,0 5,0 - - 15 8 - - SW 1020,2 13 0,0
17.02.2018 12:00:00 4,1 3,7 - - 16 9 - - SW 1020,7 10 0,0
17.02.2018 11:00:00 3,3 3,2 - - 16 9 - - SSW 1020,5 7 0,0
17.02.2018 10:00:00 2,9 2,7 - - 18 10 - - SSW 1020,2 6 0,8
17.02.2018 09:00:00 2,7 1,9 2,7 4,7 21 11 - - S 1020,0 7 0,2
17.02.2018 08:00:00 2,9 1,3 - - 22 12 - - S 1019,7 16 0,0
17.02.2018 07:00:00 2,6 1,0 - - 21 11 - - S 1019,8 20 0,0
17.02.2018 06:00:00 2,5 1,5 - - 16 9 - - S 1019,7 14 0,0
17.02.2018 05:00:00 2,2 1,4 - - 18 10 - - S 1019,9 14 0,0
17.02.2018 04:00:00 2,6 1,4 - - 18 10 - - S 1020,0 16 0,0
17.02.2018 03:00:00 2,6 1,5 - - 18 10 - - S 1020,4 16 0,0
17.02.2018 02:00:00 2,4 1,4 - - 18 10 - - S 1020,9 15 0,0
17.02.2018 01:00:00 2,3 0,9 - - 18 10 - - S 1021,1 18 0,0
17.02.2018 00:00:00 2,7 0,7 - - 22 12 - - S 1021,3 23 0,0
16.02.2018 23:00:00 2,9 0,4 - - 22 12 - - S 1021,7 30 0,0
16.02.2018 22:00:00 2,9 0,1 - - 21 11 - - S 1021,8 26 0,0
16.02.2018 21:00:00 3,6 -0,1 - - 18 10 - - S 1021,7 25 0,0
16.02.2018 20:00:00 3,5 0,0 - - 18 10 - - S 1021,8 27 0,0
16.02.2018 19:00:00 3,9 0,6 - - 18 10 - - S 1022,1 27 0,0
16.02.2018 18:00:00 3,9 0,7 - - 18 10 - - S 1022,0 27 0,0
16.02.2018 17:00:00 4,2 1,1 - - 13 7 - - S 1022,1 30 0,0
16.02.2018 16:00:00 5,9 1,7 - - 18 10 - - SSW 1022,1 30 0,0
16.02.2018 15:00:00 5,7 1,4 - - 21 11 - - SW 1022,5 35 0,0
16.02.2018 14:00:00 5,4 1,8 - - 16 9 - - SW 1022,8 23 0,0
16.02.2018 13:00:00 4,5 1,5 - - 15 8 - - SW 1023,3 22 0,0
16.02.2018 12:00:00 4,3 1,3 - - 16 9 - - SW 1023,7 26 0,0
16.02.2018 11:00:00 2,8 0,4 - - 15 8 - - WSW 1023,9 18 0,0
16.02.2018 10:00:00 1,6 -0,3 - - 11 6 - - SSW 1023,7 15 0,0
16.02.2018 09:00:00 0,0 -1,4 2,7 4,7 11 6 - - S 1023,4 14 0,0
16.02.2018 08:00:00 -1,1 -2,4 - - 11 6 - - SSW 1023,0 14 0,0
16.02.2018 07:00:00 -1,1 -2,7 - - 9 5 - - SW 1022,3 19 0,0
16.02.2018 06:00:00 -1,1 -3,1 - - 9 5 - - SW 1021,7 18 0,0
16.02.2018 05:00:00 -1,1 -3,1 - - 9 5 - - SW 1021,1 21 0,0
16.02.2018 04:00:00 -0,7 -3,1 - - 11 6 - - SW 1020,7 19 0,0
16.02.2018 03:00:00 -0,1 -2,5 - - 9 5 - - WSW 1020,1 24 0,0
16.02.2018 02:00:00 0,1 -2,7 - - 11 6 - - W 1019,1 29 0,0
16.02.2018 01:00:00 0,2 -2,5 - - 11 6 - - W 1018,2 25 0,0
16.02.2018 00:00:00 0,3 -2,1 - - 16 9 - - W 1017,2 26 0,0
15.02.2018 23:00:00 0,6 -1,8 - - 16 9 - - W 1016,7 24 0,0
15.02.2018 22:00:00 0,6 -0,9 - - 16 9 - - WSW 1015,7 21 0,0
15.02.2018 21:00:00 0,9 -0,8 - - 18 10 - - WSW 1014,5 20 0,0
15.02.2018 20:00:00 1,8 -1,3 - - 22 12 - - WSW 1013,6 23 0,0
15.02.2018 19:00:00 2,1 -2,6 - - 18 10 - - W 1013,1 30 0,0
15.02.2018 18:00:00 2,4 -2,0 - - 21 11 - - W 1012,1 35 0,0
15.02.2018 17:00:00 3,4 -1,9 - - 31 17 48 26 W 1011,1 35 0,0
15.02.2018 16:00:00 4,5 -1,6 - - 34 18 55 30 WSW 1009,8 30 0,0
15.02.2018 15:00:00 5,4 -3,6 - - 35 19 67 36 W 1009,0 30 0,0
15.02.2018 14:00:00 5,4 -3,3 - - 37 20 74 40 W 1008,4 24 0,0
15.02.2018 13:00:00 5,3 -2,1 - - 31 17 70 38 W 1007,6 16 0,0
15.02.2018 12:00:00 4,2 -3,4 - - 42 23 68 37 W 1007,0 20 0,0
15.02.2018 11:00:00 3,9 -2,8 - - 35 19 59 32 W 1006,4 20 0,0
15.02.2018 10:00:00 3,8 -0,5 - - 28 15 46 25 WSW 1005,5 28 0,0
15.02.2018 09:00:00 2,5 0,9 2,7 4,7 18 10 - - WSW 1004,6 18 0,0
15.02.2018 08:00:00 1,8 0,7 - - 18 10 - - W 1003,6 21 0,0
15.02.2018 07:00:00 2,5 1,8 - - 16 9 - - W 1002,3 25 0,0
15.02.2018 06:00:00 3,9 3,4 - - 18 10 - - W 1000,9 24 0,2
15.02.2018 05:00:00 4,2 4,0 - - 13 7 - - SW 999,7 14 0,0
15.02.2018 04:00:00 4,7 4,6 - - 18 10 - - SW 998,8 4,1 1,0
15.02.2018 03:00:00 4,6 4,3 - - 16 9 - - SSW 998,4 9 0,0
15.02.2018 02:00:00 4,5 4,4 - - 21 11 - - SW 998,3 9 0,0
15.02.2018 01:00:00 5,0 5,0 - - 15 8 - - SW 997,9 3,1 0,0
15.02.2018 00:00:00 5,3 5,3 - - 16 9 - - SSW 997,6 0,2 0,0
14.02.2018 23:00:00 5,2 5,2 - - 18 10 - - SSW 997,1 0,1 0,0
14.02.2018 22:00:00 4,9 4,9 - - 18 10 - - S 997,1 0,1 0,0
14.02.2018 21:00:00 4,3 4,3 - - 16 9 - - S 996,7 0,3 0,4
14.02.2018 20:00:00 4,1 4,1 - - 21 11 - - SSW 996,8 2,7 0,6
14.02.2018 19:00:00 3,6 3,6 - - 24 13 - - S 996,5 8 0,2
14.02.2018 18:00:00 3,2 3,1 - - 31 17 50 27 S 996,4 7 0,4
14.02.2018 17:00:00 2,8 2,7 - - 37 20 54 29 S 996,7 10 0,0
14.02.2018 16:00:00 2,3 2,1 - - 35 19 50 27 S 997,0 9 0,0
14.02.2018 15:00:00 1,8 1,6 - - 34 18 52 28 S 997,9 9 0,2
14.02.2018 14:00:00 1,1 0,9 - - 35 19 57 31 S 998,4 6 1,0
14.02.2018 13:00:00 1,0 0,5 - - 37 20 59 32 S 998,7 7 0,0
14.02.2018 12:00:00 1,0 0,2 - - 39 21 55 30 S 999,4 6 0,2
14.02.2018 11:00:00 0,0 -0,8 - - 35 19 59 32 S 1000,6 1,4 0,0
14.02.2018 10:00:00 0,7 -2,2 - - 28 15 52 28 SSE 1000,9 30 -
14.02.2018 09:00:00 -0,1 -3,5 2,7 4,7 29 16 48 26 S 1002,0 30 0,0
14.02.2018 08:00:00 0,0 -3,7 - - 28 15 48 26 S 1002,4 35 0,0
14.02.2018 07:00:00 -0,3 -3,3 - - 28 15 - - S 1003,6 40 0,0
14.02.2018 06:00:00 -0,7 -3,5 - - 16 9 - - N 1003,8 30 0,0
14.02.2018 05:00:00 -0,9 -3,5 - - 18 10 - - NW 1004,4 30 0,0
14.02.2018 04:00:00 -1,1 -3,6 - - 16 9 - - N 1004,8 35 0,0
14.02.2018 03:00:00 -0,3 -3,7 - - 11 6 - - S 1005,5 30 0,0
14.02.2018 02:00:00 -1,2 -3,8 - - 9 5 - - SSE 1006,6 35 0,0
14.02.2018 01:00:00 -1,2 -3,2 - - 4 2 - - N 1006,8 30 0,0
14.02.2018 00:00:00 -1,5 -2,5 - - 2 1 - - NW 1006,5 24 0,0
13.02.2018 23:00:00 -1,7 -2,7 - - 4 2 - - NNE 1006,5 14 0,0
13.02.2018 22:00:00 -1,3 -2,5 - - 8 4 - - N 1006,1 19 0,0
13.02.2018 21:00:00 -0,9 -1,7 - - 8 4 - - N 1005,8 15 0,0
13.02.2018 20:00:00 -0,3 -1,3 - - 5 3 - - N 1005,5 17 0,0
13.02.2018 19:00:00 0,3 -1,1 - - 5 3 - - N 1004,6 20 0,0
13.02.2018 18:00:00 0,5 -0,9 - - 9 5 - - N 1003,5 25 0,0
13.02.2018 17:00:00 1,7 -0,9 - - 13 7 - - NNW 1002,1 30 0,0
13.02.2018 16:00:00 2,1 0,0 - - 18 10 - - NNW 1000,7 45 0,0
13.02.2018 15:00:00 1,5 0,9 - - 15 8 - - NNW 999,3 29 0,0
13.02.2018 14:00:00 0,8 0,5 - - 18 10 - - N 998,5 6 1,0
13.02.2018 13:00:00 2,3 1,8 - - 21 11 - - SSW 997,1 14 0,6
13.02.2018 12:00:00 2,4 1,6 - - 31 17 54 29 S 996,2 9 0,6
13.02.2018 11:00:00 2,5 1,6 - - 34 18 55 30 S 995,4 16 0,4
13.02.2018 10:00:00 2,1 1,3 - - 29 16 54 29 SSE 995,0 11 0,2
13.02.2018 09:00:00 1,6 0,9 2,9 4,9 28 15 54 29 SSE 995,2 11 0,6
13.02.2018 08:00:00 1,4 0,6 - - 26 14 52 28 SSE 995,6 5 0,2
13.02.2018 07:00:00 1,6 0,3 - - 31 17 59 32 SSE 996,0 11 0,0
13.02.2018 06:00:00 1,3 0,2 - - 31 17 57 31 S 996,5 28 0,0
13.02.2018 05:00:00 1,3 0,1 - - 31 17 59 32 SSE 997,6 24 0,0

tt = temperature
td = dewpoint
tt -20cm = temperature -20cm
tt -100cm = temperature -100cm
ff = wind speed
fx = gusts
dd = wind direction
ppp = reduced air pressure
vv = visibility
rr = precipitation

Next stations